TELKOM-4

导读 | 星芒AI

TELKOM-4 是一颗由印尼电信公司 Telkom 运营的通信卫星,于 2013 年 11 月 19 日由阿里安航天公司发射。该卫星位于东经 113 度轨道位置,主要提供固定卫星服务(FSS),覆盖印尼全境及周边地区,支持电视广播、互联网接入和企业通信等应用。TELKOM-4 采用 EADS Astrium(现为空中客车防务与航天)制造的 Eurobird-1 平台,设计寿命为 15 年,极大地提升了印尼的通信基础设施能力。

基本信息
目录编号:
43587
目录名称:
TELKOM-4
国际标识:
2018-064A
轨道中心:
EARTH
卫星名称:
TELKOM-4
卫星全名:
--
卫星状态:
在轨 (已飞行2685 天)
发射日期:
2018-08-07 UTC
国别 :
印度尼西亚 (ID)
星等 :
--
轨道信息
数据来源 国际轨道数据 AOE轨道数据
星历时间 2025-12-13T06:48:39+0800
11小时前
查看轨道信息
2025-12-13T05:00:00+0800
13小时前
查看轨道信息
半长轴 42164.616km 42164.616km
偏心率 0.0001523 0.0001629
轨道倾角 0.021° 0.022°
近地点辐角 226.974° 219.443°
升交点赤经 61.917° 63.866°
平近点角 243.160° 221.502°
近地点 35780.059km 35779.612km
远地点 35792.903km 35793.35km
周期 1436.091分钟 1436.091分钟
每日圈数 1.002722 1.002722
详细信息
使用方式:
暂无
2D轨道图
3D轨道图
轨道高度分析图
轨道倾角分析图
轨道综合分析图
查看轨道综合分析图